#timestamp,LO_Frequency,Hit,StdDev 
1562932815.5,286047002.0,N
1562932835.4,286047002.1,N
1562932855.2,286047002.6,N
1562932875.0,286047003.8,Y
1562932875.9,286047003.8,P
1562932895.8,286047002.8,P
1562932915.6,286046998.8,N
1562932935.5,286047001.2,N
1562932955.3,286046998.7,N
1562932975.1,286046998.1,N
1562932995.9,286046998.7,N
1562933015.7,286046997.3,N
1562933035.6,286046995.3,N
1562933055.4,286046997.8,N
1562933075.2,286046999.6,N
1562933095.1,286046995.3,N
1562933096.0,286046995.3,N
1562933115.8,286046995.6,N
1562933135.6,286046997.7,N
1562933155.5,286046996.7,N
1562933175.3,286046999.1,N
1562933195.2,286046999.5,N
1562933215.9,286047002.0,N
1562933235.7,286047002.4,N
1562933255.6,286047001.0,N
1562933275.4,286047001.0,N
1562933295.3,286047000.8,N
1562933315.1,286047000.9,N
1562933316.0,286047000.9,N
1562933335.2,286047000.8,N
1562933355.0,286047001.1,N
1562933355.9,286047001.1,N
1562933375.8,286047001.1,N
1562933395.6,286046999.0,N
1562933415.5,286046998.8,N
1562933435.3,286046999.6,N
1562933455.1,286047000.8,N
1562933475.9,286046998.2,N
1562933495.7,286046999.0,N
1562933515.6,286047000.7,N
1562933535.4,286047000.6,N
1562933555.2,286046998.6,N
1562933575.1,286047000.6,N
1562933576.0,286047000.6,N
1562933595.8,286047000.9,N
1562933615.6,286046998.2,N
1562933635.5,286047000.9,N
1562933655.3,286047002.7,N
1562933675.2,286047000.3,N
1562933695.0,286047000.8,N
1562933695.9,286047000.8,N
1562933715.7,286047001.1,N
1562933735.6,286047000.7,N
1562933755.4,286046999.8,N
1562933775.3,286046999.9,N
1562933795.1,286046999.8,N
1562933796.0,286046999.8,N
1562933845.9,286047000.4,E
1562933855.8,286046999.9,N
1562933875.6,286047002.7,P
1562933895.5,286046998.4,N
1562933915.3,286047001.0,N
1562933935.1,286047000.4,N
1562933955.9,286047000.3,N
1562933975.7,286047002.2,N
1562933995.6,286047000.7,N
1562934015.4,286046999.9,N
1562934035.2,286047002.4,N
1562934055.1,286047000.3,N
1562934056.0,286047000.3,N
1562934075.8,286047000.6,N
1562934095.7,286047000.6,N
1562934115.5,286047000.2,N
1562934135.3,286047002.7,N
1562934155.2,286047000.2,N
1562934175.0,286047000.0,N
1562934175.9,286047000.0,N
1562934195.8,286046999.7,N
1562934215.6,286047001.8,N
1562934235.4,286046999.7,N
1562934255.3,286047000.3,N
1562934275.1,286046999.0,N
1562934295.8,286046999.0,N
1562934315.7,286046999.9,N
1562934335.5,286047000.4,N
1562934355.4,286047000.8,N
1562934375.2,286047001.0,N
1562934395.0,286047000.6,N
1562934395.9,286047000.6,N
1562934415.8,286047002.5,N
1562934435.6,286047002.2,N
1562934455.5,286047002.1,N
1562934475.3,286047000.8,N
1562934495.1,286046998.2,N
1562934515.9,286047001.2,N
1562934535.7,286046998.8,N
1562934555.6,286046998.2,N
1562934575.4,286046998.4,N
1562934595.2,286046998.5,N
1562934615.1,286046998.5,N
1562934616.0,286046998.5,N
1562934635.8,286046998.7,N
1562934655.7,286046998.6,N
1562934675.5,286046998.6,N
1562934695.3,286046998.3,N
1562934715.2,286046998.4,N
1562934735.0,286046999.0,N
1562934735.9,286046999.0,N
1562934755.7,286046999.0,N
1562934775.6,286046998.8,N
1562934795.4,286046998.9,N
1562934815.3,286046999.5,N
1562934835.1,286046999.0,N
1562934855.8,286046999.5,N
1562934875.7,286046994.9,Y
1562934895.5,286046997.0,P
1562934915.4,286046997.6,N
1562934935.2,286046995.5,P
1562934955.0,286046997.3,N
1562934955.9,286046997.3,N
1562934975.8,286046997.9,N
1562934995.6,286046997.6,N
1562935015.4,286046998.0,N
1562935035.3,286046993.4,Y
1562935055.1,286046999.4,P
1562935075.9,286046998.9,N
1562935095.7,286046999.3,N
1562935115.5,286046999.4,N
1562935135.4,286046999.3,N
1562935155.2,286046998.2,N
1562935175.1,286046998.9,N
1562935176.0,286046998.9,N
1562935197.1,286046997.0,Y
1562935215.1,286047000.8,P
1562935235.9,286046998.3,N
1562935255.7,286047001.0,N
1562935275.5,286046998.8,N
1562935295.4,286046997.8,N
1562935315.2,286046997.3,N
1562935335.0,286046996.9,N
1562935335.9,286046996.9,N
1562935355.8,286046999.4,N
1562935375.6,286046997.0,N
1562935395.5,286046999.0,N
1562935415.3,286046999.3,N
1562935435.1,286047000.8,N
1562935455.9,286046999.9,N
1562935475.7,286047000.1,N
1562935495.8,286047000.1,N
1562935515.6,286047001.7,N
1562935535.5,286047002.6,N
1562935555.3,286047000.0,N
1562935575.4,286047000.2,N
1562935595.3,286046999.8,N
1562935615.1,286047001.9,N
1562935635.9,286047000.9,N
1562935655.7,286047000.7,N
1562935675.5,286046998.7,N
1562935695.4,286046999.8,N
1562935715.2,286046998.2,N
1562935735.0,286046998.2,N
1562935736.0,286046998.2,N
1562935755.8,286046996.7,N
1562935775.6,286046997.1,N
1562935795.5,286046996.5,N
1562935815.3,286046996.7,N
1562935835.1,286046997.1,N
1562935855.9,286046997.2,N
1562935875.7,286046997.2,N
1562935895.6,286046997.2,N
1562935915.4,286046995.1,N
1562935935.2,286046995.7,N
1562935955.1,286046997.9,N
1562935956.0,286046997.9,N
1562935975.8,286046996.7,N
1562935995.7,286046998.7,N
1562936015.5,286046998.4,N
1562936035.3,286046999.3,N
1562936055.2,286046998.6,N
1562936075.0,286047000.6,N
1562936075.9,286047000.6,N
1562936095.8,286047000.6,N
1562936115.7,286047002.4,N
1562936135.6,286047002.6,N
1562936155.4,286047000.1,N
1562936175.2,286047002.4,N
1562936195.1,286047000.4,N
1562936196.0,286047000.4,N
1562936215.8,286047000.6,N
1562936235.7,286047000.6,N
1562936255.5,286046998.2,N
1562936275.3,286047001.1,N
1562936295.2,286046999.3,N
1562936315.0,286046999.2,N
1562936315.9,286046999.2,N
1562936335.7,286046999.4,N
1562936355.6,286046999.6,N
1562936375.4,286046997.0,N
1562936395.3,286046997.0,N
